Location: Newark
(15.4608°S, 41.1635°W)
Time: 00:23:16
(UTC+00:00)

Vanguard 3 - Pass Details

Date: 08 August 2021
Orbit: 510 x 3260 km, 33.3° (Epoch: 20 September)

Event Time Altitude Azimuth Distance (km) Brightness Sun altitude
Rises 04:20:56 0° 301° (WNW) 7,023 - -68.2°
Reaches altitude 10° 04:26:03 10° 300° (WNW) 5,771 - -67.0°
Maximum altitude 04:42:40 81° 213° (SSW) 2,043 - -63.0°
Drops below altitude 10° 04:52:00 10° 125° (SE) 3,440 - -60.8°
Exits shadow 04:53:33 - 124° (ESE) 3,909 10.9 -60.4°
Sets 04:54:18 0° 123° (ESE) 4,138 11.1 -60.2°
